Time,TemperatureF,DewpointF,PressureIn,WindDirection,WindDirectionDegrees,WindSpeedMPH,WindSpeedGustMPH,Humidity,HourlyPrecipIn,Conditions,Clouds,dailyrainin,SoftwareType,DateUTC
2018-01-17 00:11:00,0.3,-2.0,30.44,NNE,23,0.0,1.0,88,0.00,,,0.00,weatherlink.com 1.10,2018-01-17 05:11:00,
2018-01-17 00:26:00,0.2,-3.0,30.44,NNE,24,0.0,1.0,87,0.00,,,0.00,weatherlink.com 1.10,2018-01-17 05:26:00,
2018-01-17 00:41:00,0.8,-2.0,30.43,NNE,25,0.0,1.0,88,0.00,,,0.00,weatherlink.com 1.10,2018-01-17 05:41:00,
2018-01-17 00:56:00,1.5,-1.0,30.43,NNE,25,0.0,1.0,88,0.00,,,0.00,weatherlink.com 1.10,2018-01-17 05:56:00,
2018-01-17 01:11:00,2.4,0.0,30.43,NNE,25,0.0,0.0,88,0.00,,,0.00,weatherlink.com 1.10,2018-01-17 06:11:00,
2018-01-17 01:26:00,3.1,0.0,30.43,NNE,23,0.0,1.0,88,0.00,,,0.00,weatherlink.com 1.10,2018-01-17 06:26:00,
2018-01-17 01:41:00,4.0,1.0,30.43,NNE,23,0.0,0.0,88,0.00,,,0.00,weatherlink.com 1.10,2018-01-17 06:41:00,
2018-01-17 01:56:00,4.6,2.0,30.42,NNE,24,0.0,0.0,88,0.00,,,0.00,weatherlink.com 1.10,2018-01-17 06:56:00,
2018-01-17 02:11:00,5.3,3.0,30.41,NNE,24,0.0,0.0,89,0.00,,,0.00,weatherlink.com 1.10,2018-01-17 07:11:00,
2018-01-17 02:26:00,6.0,4.0,30.41,NNE,24,0.0,0.0,89,0.00,,,0.00,weatherlink.com 1.10,2018-01-17 07:26:00,
2018-01-17 02:41:00,6.4,4.0,30.40,NNE,24,0.0,0.0,88,0.00,,,0.00,weatherlink.com 1.10,2018-01-17 07:41:00,
2018-01-17 02:56:00,6.5,4.0,30.40,NNE,24,0.0,0.0,88,0.00,,,0.00,weatherlink.com 1.10,2018-01-17 07:56:00,
2018-01-17 03:11:00,5.7,3.0,30.40,NNE,24,0.0,0.0,87,0.00,,,0.00,weatherlink.com 1.10,2018-01-17 08:11:00,
2018-01-17 03:27:00,5.1,2.0,30.40,NNE,24,0.0,0.0,88,0.00,,,0.00,weatherlink.com 1.10,2018-01-17 08:27:00,
2018-01-17 03:42:00,5.7,3.0,30.39,NNE,25,0.0,0.0,89,0.00,,,0.00,weatherlink.com 1.10,2018-01-17 08:42:00,
2018-01-17 03:57:00,6.2,4.0,30.38,NNE,25,0.0,0.0,89,0.00,,,0.00,weatherlink.com 1.10,2018-01-17 08:57:00,
2018-01-17 04:12:00,6.6,4.0,30.37,SE,143,0.0,1.0,89,0.00,,,0.00,weatherlink.com 1.10,2018-01-17 09:12:00,
2018-01-17 04:27:00,7.1,5.0,30.36,SE,143,0.0,0.0,89,0.00,,,0.00,weatherlink.com 1.10,2018-01-17 09:27:00,
2018-01-17 04:42:00,7.5,5.0,30.36,SE,143,0.0,0.0,89,0.00,,,0.00,weatherlink.com 1.10,2018-01-17 09:42:00,
2018-01-17 04:57:00,8.1,6.0,30.35,SE,143,0.0,0.0,89,0.00,,,0.00,weatherlink.com 1.10,2018-01-17 09:57:00,
2018-01-17 05:12:00,8.7,6.0,30.34,SE,143,0.0,0.0,89,0.00,,,0.00,weatherlink.com 1.10,2018-01-17 10:12:00,
2018-01-17 05:27:00,9.3,7.0,30.34,West,263,0.0,0.0,90,0.00,,,0.00,weatherlink.com 1.10,2018-01-17 10:27:00,
2018-01-17 05:57:00,10.8,9.0,30.34,West,262,0.0,0.0,91,0.00,,,0.00,weatherlink.com 1.10,2018-01-17 10:57:00,
2018-01-17 06:12:00,11.5,9.0,30.33,West,262,0.0,0.0,91,0.00,,,0.00,weatherlink.com 1.10,2018-01-17 11:12:00,
2018-01-17 06:27:00,12.6,11.0,30.32,West,262,0.0,1.0,91,0.00,,,0.00,weatherlink.com 1.10,2018-01-17 11:27:00,
2018-01-17 06:42:00,13.8,12.0,30.32,West,262,0.0,1.0,91,0.00,,,0.00,weatherlink.com 1.10,2018-01-17 11:42:00,
2018-01-17 06:58:00,14.8,13.0,30.31,West,262,0.0,0.0,91,0.00,,,0.00,weatherlink.com 1.10,2018-01-17 11:58:00,
2018-01-17 07:13:00,15.7,14.0,30.31,West,262,0.0,0.0,91,0.00,,,0.00,weatherlink.com 1.10,2018-01-17 12:13:00,
2018-01-17 07:28:00,17.0,15.0,30.30,WSW,248,0.0,1.0,91,0.00,,,0.00,weatherlink.com 1.10,2018-01-17 12:28:00,
2018-01-17 07:43:00,18.1,16.0,30.30,West,266,0.0,2.0,90,0.00,,,0.00,weatherlink.com 1.10,2018-01-17 12:43:00,
2018-01-17 07:58:00,19.9,17.0,30.28,West,261,1.0,8.0,87,0.00,,,0.00,weatherlink.com 1.10,2018-01-17 12:58:00,
2018-01-17 08:13:00,21.9,17.0,30.28,West,264,4.0,8.0,82,0.00,,,0.00,weatherlink.com 1.10,2018-01-17 13:13:00,
2018-01-17 08:28:00,22.7,17.0,30.28,NW,309,3.0,8.0,79,0.00,,,0.00,weatherlink.com 1.10,2018-01-17 13:28:00,
2018-01-17 08:43:00,23.0,16.0,30.28,SSW,208,3.0,11.0,75,0.00,,,0.00,weatherlink.com 1.10,2018-01-17 13:43:00,
2018-01-17 08:58:00,23.3,16.0,30.27,WSW,238,4.0,11.0,72,0.00,,,0.00,weatherlink.com 1.10,2018-01-17 13:58:00,
2018-01-17 09:13:00,23.5,16.0,30.27,WSW,250,3.0,11.0,73,0.00,,,0.00,weatherlink.com 1.10,2018-01-17 14:13:00,
2018-01-17 09:28:00,23.6,16.0,30.26,WSW,237,4.0,15.0,74,0.00,,,0.00,weatherlink.com 1.10,2018-01-17 14:28:00,
2018-01-17 09:43:00,23.7,17.0,30.26,West,264,4.0,9.0,74,0.00,,,0.00,weatherlink.com 1.10,2018-01-17 14:43:00,
2018-01-17 09:58:00,23.6,16.0,30.25,WSW,256,5.0,13.0,73,0.00,,,0.00,weatherlink.com 1.10,2018-01-17 14:58:00,
2018-01-17 10:13:00,23.5,16.0,30.25,West,275,5.0,10.0,73,0.00,,,0.00,weatherlink.com 1.10,2018-01-17 15:13:00,
2018-01-17 10:29:00,23.5,16.0,30.25,WSW,252,6.0,18.0,73,0.00,,,0.00,weatherlink.com 1.10,2018-01-17 15:29:00,
2018-01-17 10:44:00,23.9,16.0,30.24,WSW,248,7.0,10.0,71,0.00,,,0.00,weatherlink.com 1.10,2018-01-17 15:44:00,
2018-01-17 10:59:00,24.1,16.0,30.24,West,267,4.0,9.0,71,0.00,,,0.00,weatherlink.com 1.10,2018-01-17 15:59:00,
2018-01-17 11:14:00,24.5,17.0,30.23,West,260,6.0,11.0,73,0.00,,,0.00,weatherlink.com 1.10,2018-01-17 16:14:00,
2018-01-17 11:30:00,24.2,17.0,30.23,SW,236,9.0,14.0,75,0.00,,,0.00,weatherlink.com 1.10,2018-01-17 16:30:00,
2018-01-17 11:44:00,24.2,17.0,30.22,WSW,244,2.0,15.0,75,0.00,,,0.00,weatherlink.com 1.10,2018-01-17 16:44:00,
2018-01-17 11:59:00,24.4,18.0,30.21,West,264,6.0,10.0,76,0.00,,,0.00,weatherlink.com 1.10,2018-01-17 16:59:00,
2018-01-17 12:14:00,24.3,17.0,30.19,WNW,285,4.0,14.0,75,0.00,,,0.00,weatherlink.com 1.10,2018-01-17 17:14:00,
2018-01-17 12:29:00,24.3,17.0,30.18,West,260,3.0,14.0,75,0.00,,,0.00,weatherlink.com 1.10,2018-01-17 17:29:00,
2018-01-17 12:44:00,24.3,17.0,30.17,West,262,4.0,14.0,74,0.00,,,0.00,weatherlink.com 1.10,2018-01-17 17:44:00,
2018-01-17 12:59:00,24.5,17.0,30.16,West,276,5.0,14.0,73,0.00,,,0.00,weatherlink.com 1.10,2018-01-17 17:59:00,
2018-01-17 13:14:00,24.5,17.0,30.14,West,271,4.0,15.0,72,0.00,,,0.00,weatherlink.com 1.10,2018-01-17 18:14:00,
2018-01-17 13:30:00,24.8,17.0,30.13,West,280,7.0,20.0,71,0.00,,,0.00,weatherlink.com 1.10,2018-01-17 18:30:00,
2018-01-17 13:45:00,24.9,16.0,30.12,West,259,8.0,14.0,70,0.00,,,0.00,weatherlink.com 1.10,2018-01-17 18:45:00,
2018-01-17 14:00:00,25.0,16.0,30.12,WSW,251,7.0,14.0,69,0.00,,,0.00,weatherlink.com 1.10,2018-01-17 19:00:00,
2018-01-17 14:15:00,25.4,16.0,30.10,SW,224,5.0,17.0,68,0.00,,,0.00,weatherlink.com 1.10,2018-01-17 19:15:00,
2018-01-17 14:30:00,25.8,15.0,30.09,West,266,3.0,12.0,65,0.00,,,0.00,weatherlink.com 1.10,2018-01-17 19:30:00,
2018-01-17 14:45:00,25.8,15.0,30.09,WSW,254,4.0,15.0,65,0.00,,,0.00,weatherlink.com 1.10,2018-01-17 19:45:00,
2018-01-17 15:08:00,25.7,15.0,30.08,WSW,240,5.0,19.0,65,0.00,,,0.00,weatherlink.com 1.10,2018-01-17 20:08:00,
2018-01-17 15:15:00,25.9,16.0,30.09,West,270,9.0,14.0,65,0.00,,,0.00,weatherlink.com 1.10,2018-01-17 20:15:00,
2018-01-17 15:30:00,25.9,16.0,30.07,WSW,237,3.0,16.0,65,0.00,,,0.00,weatherlink.com 1.10,2018-01-17 20:30:00,
2018-01-17 15:52:00,25.7,15.0,30.06,West,279,4.0,13.0,65,0.00,,,0.00,weatherlink.com 1.10,2018-01-17 20:52:00,
2018-01-17 16:00:00,25.9,15.0,30.06,NW,319,3.0,13.0,64,0.00,,,0.00,weatherlink.com 1.10,2018-01-17 21:00:00,
2018-01-17 16:23:00,26.2,15.0,30.05,WSW,245,3.0,12.0,63,0.00,,,0.00,weatherlink.com 1.10,2018-01-17 21:23:00,
2018-01-17 16:35:00,26.2,15.0,30.05,West,274,3.0,9.0,63,0.00,,,0.00,weatherlink.com 1.10,2018-01-17 21:35:00,
2018-01-17 16:45:00,26.1,15.0,30.03,WSW,244,3.0,14.0,62,0.00,,,0.00,weatherlink.com 1.10,2018-01-17 21:45:00,
2018-01-17 17:01:00,25.9,15.0,30.03,West,264,4.0,9.0,63,0.00,,,0.00,weatherlink.com 1.10,2018-01-17 22:01:00,
2018-01-17 17:16:00,25.9,15.0,30.03,NNW,343,4.0,10.0,63,0.00,,,0.00,weatherlink.com 1.10,2018-01-17 22:16:00,